| time (UTC) | temp F | wind direction | speed MPH | gust MPH | rain 1hr in | rain 24hr in | rain mn in | humidity % | barometer mb |
| 20260903184036 | 81 | 0.0 | 0.0 | 0.00 | 0.00 | 0.00 | 84 | 1020.5 | |
| 20260903183036 | 81 | 0.0 | 0.0 | 0.00 | 0.00 | 0.00 | 83 | 1020.3 | |
| 20260903182036 | 82 | 0.0 | 0.0 | 0.00 | 0.00 | 0.00 | 79 | 1020.2 | |
| 20260903181035 | 82 | 0.0 | 0.0 | 0.00 | 0.00 | 0.00 | 76 | 1020.1 | |
| 20260903180036 | 83 | 0.0 | 0.0 | 0.00 | 0.00 | 0.00 | 72 | 1019.8 | |
| 20260903175035 | 84 | 0.0 | 0.0 | 0.00 | 0.00 | 0.00 | 69 | 1019.8 | |
| 20260903174036 | 84 | 0.0 | 0.0 | 0.00 | 0.00 | 0.00 | 62 | 1019.6 | |
| 20260903173042 | 87 | 0.0 | 0.0 | 0.00 | 0.00 | 0.00 | 55 | 1019.5 | |
| 20260903172036 | 93 | 0.0 | 0.0 | 0.00 | 0.00 | 0.00 | 42 | 1018.9 | |
| 20260903171041 | 112 | 0.0 | 0.0 | 0.00 | 0.00 | 0.00 | 26 | 1017.1 | |
| 20260903170036 | 117 | 0.0 | 0.0 | 0.00 | 0.00 | 0.00 | 22 | 1016.7 | |
| 20260903165035 | 115 | 0.0 | 0.0 | 0.00 | 0.00 | 0.00 | 22 | 1017.0 | |
| 20260903164036 | 116 | 0.0 | 0.0 | 0.00 | 0.00 | 0.00 | 23 | 1017.0 | |
| 20260903163036 | 117 | 0.0 | 0.0 | 0.00 | 0.00 | 0.00 | 21 | 1016.9 | |
| 20260903162042 | 117 | 0.0 | 0.0 | 0.00 | 0.00 | 0.00 | 23 | 1016.8 | |
| 20260903161036 | 115 | 0.0 | 0.0 | 0.00 | 0.00 | 0.00 | 23 | 1017.2 | |
| 20260903160041 | 125 | 0.0 | 0.0 | 0.00 | 0.00 | 0.00 | 18 | 1016.5 | |
| 20260903155036 | 128 | 0.0 | 0.0 | 0.00 | 0.00 | 0.00 | 16 | 1016.1 | |
| 20260903154036 | 128 | 0.0 | 0.0 | 0.00 | 0.00 | 0.00 | 16 | 1016.3 | |
| 20260903153036 | 127 | 0.0 | 0.0 | 0.00 | 0.00 | 0.00 | 16 | 1016.2 | |
| 20260903152036 | 129 | 0.0 | 0.0 | 0.00 | 0.00 | 0.00 | 16 | 1016.3 | |
| 20260903151036 | 123 | 0.0 | 0.0 | 0.00 | 0.00 | 0.00 | 17 | 1016.6 | |
| 20260903150036 | 122 | 0.0 | 0.0 | 0.00 | 0.00 | 0.00 | 17 | 1016.8 | |
| 20260903145036 | 128 | 0.0 | 0.0 | 0.00 | 0.00 | 0.00 | 15 | 1016.5 | |
| 20260903144041 | 125 | 0.0 | 0.0 | 0.00 | 0.00 | 0.00 | 16 | 1016.8 | |
| 20260903143041 | 121 | 0.0 | 0.0 | 0.00 | 0.00 | 0.00 | 18 | 1017.0 | |
| 20260903142036 | 116 | 0.0 | 0.0 | 0.00 | 0.00 | 0.00 | 21 | 1017.5 | |
| 20260903141036 | 97 | 0.0 | 0.0 | 0.00 | 0.00 | 0.00 | 34 | 1018.9 | |
| 20260903140036 | 95 | 0.0 | 0.0 | 0.00 | 0.00 | 0.00 | 36 | 1019.0 | |
| 20260903135036 | 96 | 0.0 | 0.0 | 0.00 | 0.00 | 0.00 | 36 | 1019.1 | |
| 20260903134036 | 95 | 0.0 | 0.0 | 0.00 | 0.00 | 0.00 | 37 | 1019.4 | |
| 20260903133036 | 95 | 0.0 | 0.0 | 0.00 | 0.00 | 0.00 | 38 | 1019.5 | |
| 20260903132036 | 95 | 0.0 | 0.0 | 0.00 | 0.00 | 0.00 | 37 | 1019.5 | |
| 20260903131036 | 96 | 0.0 | 0.0 | 0.00 | 0.00 | 0.00 | 36 | 1019.5 | |
| 20260903130036 | 95 | 0.0 | 0.0 | 0.00 | 0.00 | 0.00 | 36 | 1019.6 | |
| 20260903125041 | 95 | 0.0 | 0.0 | 0.00 | 0.00 | 0.00 | 35 | 1019.6 | |
| 20260903124036 | 95 | 0.0 | 0.0 | 0.00 | 0.00 | 0.00 | 37 | 1019.6 | |
| 20260903123036 | 95 | 0.0 | 0.0 | 0.00 | 0.00 | 0.00 | 35 | 1019.6 | |
| 20260903122036 | 94 | 0.0 | 0.0 | 0.00 | 0.00 | 0.00 | 34 | 1019.7 | |
| 20260903121036 | 94 | 0.0 | 0.0 | 0.00 | 0.00 | 0.00 | 35 | 1019.9 | |
| 20260903120036 | 94 | 0.0 | 0.0 | 0.00 | 0.00 | 0.00 | 35 | 1019.8 | |
| 20260903115036 | 94 | 0.0 | 0.0 | 0.00 | 0.00 | 0.00 | 34 | 1019.9 | |
| 20260903114036 | 93 | 0.0 | 0.0 | 0.00 | 0.00 | 0.00 | 35 | 1020.2 | |
| 20260903113041 | 92 | 0.0 | 0.0 | 0.00 | 0.00 | 0.00 | 36 | 1020.3 | |
| 20260903112036 | 91 | 0.0 | 0.0 | 0.00 | 0.00 | 0.00 | 39 | 1020.5 | |
| 20260903111036 | 90 | 0.0 | 0.0 | 0.00 | 0.00 | 0.00 | 37 | 1020.7 | |
| 20260903110036 | 90 | 0.0 | 0.0 | 0.00 | 0.00 | 0.00 | 39 | 1020.8 | |
| 20260903105036 | 90 | 0.0 | 0.0 | 0.00 | 0.00 | 0.00 | 39 | 1020.9 | |
| 20260903104036 | 89 | 0.0 | 0.0 | 0.00 | 0.00 | 0.00 | 38 | 1021.1 | |
| 20260903103036 | 90 | 0.0 | 0.0 | 0.00 | 0.00 | 0.00 | 40 | 1021.2 | |
| 20260903102036 | 88 | 0.0 | 0.0 | 0.00 | 0.00 | 0.00 | 40 | 1021.5 | |
| 20260903101036 | 87 | 0.0 | 0.0 | 0.00 | 0.00 | 0.00 | 41 | 1021.7 | |
| 20260903100036 | 87 | 0.0 | 0.0 | 0.00 | 0.00 | 0.00 | 41 | 1021.7 | |
| 20260903095036 | 86 | 0.0 | 0.0 | 0.00 | 0.00 | 0.00 | 43 | 1021.8 | |
| 20260903094036 | 86 | 0.0 | 0.0 | 0.00 | 0.00 | 0.00 | 43 | 1021.9 | |
| 20260903093041 | 86 | 0.0 | 0.0 | 0.00 | 0.00 | 0.00 | 42 | 1021.7 | |
| 20260903092036 | 85 | 0.0 | 0.0 | 0.00 | 0.00 | 0.00 | 43 | 1021.9 | |
| 20260903091041 | 85 | 0.0 | 0.0 | 0.00 | 0.00 | 0.00 | 48 | 1022.0 | |
| 20260903090036 | 83 | 0.0 | 0.0 | 0.00 | 0.00 | 0.00 | 54 | 1022.0 | |
| 20260903085036 | 82 | 0.0 | 0.0 | 0.00 | 0.00 | 0.00 | 61 | 1022.0 | |
| 20260903084036 | 81 | 0.0 | 0.0 | 0.00 | 0.00 | 0.00 | 65 | 1022.1 | |
| 20260903083036 | 80 | 0.0 | 0.0 | 0.00 | 0.00 | 0.00 | 70 | 1022.2 | |
| 20260903082036 | 78 | 0.0 | 0.0 | 0.00 | 0.00 | 0.00 | 74 | 1022.4 | |
| 20260903081036 | 77 | 0.0 | 0.0 | 0.00 | 0.00 | 0.00 | 78 | 1022.4 | |
| 20260903080041 | 76 | 0.0 | 0.0 | 0.00 | 0.00 | 0.00 | 83 | 1022.6 | |
| 20260903075041 | 75 | 0.0 | 0.0 | 0.00 | 0.00 | 0.00 | 88 | 1022.7 | |
| 20260903074036 | 74 | 0.0 | 0.0 | 0.00 | 0.00 | 0.00 | 91 | 1022.8 | |
| 20260903073036 | 73 | 0.0 | 0.0 | 0.00 | 0.00 | 0.00 | 98 | 1023.0 | |
| 20260903072036 | 71 | 0.0 | 0.0 | 0.00 | 0.00 | 0.00 | 10 | 1023.2 | |
| 20260903071036 | 70 | 0.0 | 0.0 | 0.00 | 0.00 | 0.00 | 10 | 1023.3 | |
| 20260903070036 | 70 | 0.0 | 0.0 | 0.00 | 0.00 | 0.00 | 10 | 1023.3 | |
| 20260903065036 | 69 | 0.0 | 0.0 | 0.00 | 0.00 | 0.00 | 10 | 1023.4 | |
| 20260903064036 | 68 | 0.0 | 0.0 | 0.00 | 0.00 | 0.00 | 10 | 1023.5 | |
| 20260903063036 | 68 | 0.0 | 0.0 | 0.00 | 0.00 | 0.00 | 10 | 1023.4 | |
| 20260903062036 | 68 | 0.0 | 0.0 | 0.00 | 0.00 | 0.00 | 10 | 1023.2 | |
| 20260903061036 | 68 | 0.0 | 0.0 | 0.00 | 0.00 | 0.00 | 10 | 1023.2 | |
| 20260903060036 | 66 | 0.0 | 0.0 | 0.00 | 0.00 | 0.00 | 10 | 1023.4 | |
| 20260903055041 | 67 | 0.0 | 0.0 | 0.00 | 0.00 | 0.00 | 10 | 1023.2 | |
| 20260903054036 | 66 | 0.0 | 0.0 | 0.00 | 0.00 | 0.00 | 10 | 1023.1 | |
| 20260903053041 | 66 | 0.0 | 0.0 | 0.00 | 0.00 | 0.00 | 10 | 1022.9 | |
| 20260903052036 | 66 | 0.0 | 0.0 | 0.00 | 0.00 | 0.00 | 10 | 1023.0 | |
| 20260903051036 | 66 | 0.0 | 0.0 | 0.00 | 0.00 | 0.00 | 10 | 1022.9 | |
| 20260903050036 | 66 | 0.0 | 0.0 | 0.00 | 0.00 | 0.00 | 10 | 1022.7 | |
| 20260903045036 | 67 | 0.0 | 0.0 | 0.00 | 0.00 | 0.00 | 10 | 1022.6 | |
| 20260903044036 | 67 | 0.0 | 0.0 | 0.00 | 0.00 | 0.00 | 10 | 1022.6 | |
| 20260903043036 | 67 | 0.0 | 0.0 | 0.00 | 0.00 | 0.00 | 10 | 1022.6 | |
| 20260903042036 | 67 | 0.0 | 0.0 | 0.00 | 0.00 | 0.00 | 10 | 1022.5 | |
| 20260903041036 | 67 | 0.0 | 0.0 | 0.00 | 0.00 | 0.00 | 10 | 1022.4 | |
| 20260903040041 | 67 | 0.0 | 0.0 | 0.00 | 0.00 | 0.00 | 10 | 1022.6 | |
| 20260903035036 | 67 | 0.0 | 0.0 | 0.00 | 0.00 | 0.00 | 10 | 1022.7 | |
| 20260903034036 | 67 | 0.0 | 0.0 | 0.00 | 0.00 | 0.00 | 10 | 1022.7 | |
| 20260903033036 | 68 | 0.0 | 0.0 | 0.00 | 0.00 | 0.00 | 10 | 1022.7 | |
| 20260903032036 | 68 | 0.0 | 0.0 | 0.00 | 0.00 | 0.00 | 10 | 1022.7 | |
| 20260903031036 | 68 | 0.0 | 0.0 | 0.00 | 0.00 | 0.00 | 10 | 1022.7 | |
| 20260903030036 | 69 | 0.0 | 0.0 | 0.00 | 0.00 | 0.00 | 10 | 1022.6 | |
| 20260903025036 | 69 | 0.0 | 0.0 | 0.00 | 0.00 | 0.00 | 10 | 1022.7 | |
| 20260903024047 | 68 | 0.0 | 0.0 | 0.00 | 0.00 | 0.00 | 10 | 1022.8 | |
| 20260903023036 | 68 | 0.0 | 0.0 | 0.00 | 0.00 | 0.00 | 10 | 1022.8 | |
| 20260903022041 | 69 | 0.0 | 0.0 | 0.00 | 0.00 | 0.00 | 10 | 1022.6 | |
| 20260903021036 | 69 | 0.0 | 0.0 | 0.00 | 0.00 | 0.00 | 10 | 1022.8 | |
| 20260903020036 | 69 | 0.0 | 0.0 | 0.00 | 0.00 | 0.00 | 10 | 1022.8 | |
| 20260903015036 | 69 | 0.0 | 0.0 | 0.00 | 0.00 | 0.00 | 10 | 1022.7 | |
| 20260903014042 | 69 | 0.0 | 0.0 | 0.00 | 0.00 | 0.00 | 10 | 1022.7 | |
| 20260903013041 | 70 | 0.0 | 0.0 | 0.00 | 0.00 | 0.00 | 10 | 1022.7 | |
| 20260903012036 | 70 | 0.0 | 0.0 | 0.00 | 0.00 | 0.00 | 10 | 1022.6 | |
| 20260903011036 | 70 | 0.0 | 0.0 | 0.00 | 0.00 | 0.00 | 10 | 1022.7 | |
| 20260903010036 | 70 | 0.0 | 0.0 | 0.00 | 0.00 | 0.00 | 10 | 1022.6 | |
| 20260903005036 | 70 | 0.0 | 0.0 | 0.00 | 0.00 | 0.00 | 10 | 1022.6 | |
| 20260903004036 | 71 | 0.0 | 0.0 | 0.00 | 0.00 | 0.00 | 96 | 1022.6 | |
| 20260903003036 | 71 | 0.0 | 0.0 | 0.00 | 0.00 | 0.00 | 10 | 1022.7 | |
| 20260903002041 | 70 | 0.0 | 0.0 | 0.00 | 0.00 | 0.00 | 10 | 1022.6 | |
| 20260903001036 | 71 | 0.0 | 0.0 | 0.00 | 0.00 | 0.00 | 95 | 1022.7 | |
| 20260903000036 | 71 | 0.0 | 0.0 | 0.00 | 0.00 | 0.00 | 10 | 1022.5 | |
| 20260902235036 | 71 | 0.0 | 0.0 | 0.00 | 0.00 | 0.00 | 90 | 1022.6 | |
| 20260902234036 | 71 | 0.0 | 0.0 | 0.00 | 0.00 | 0.00 | 92 | 1022.5 | |
| 20260902233036 | 71 | 0.0 | 0.0 | 0.00 | 0.00 | 0.00 | 87 | 1022.4 | |
| 20260902232036 | 71 | 0.0 | 0.0 | 0.00 | 0.00 | 0.00 | 91 | 1022.5 | |
| 20260902231036 | 72 | 0.0 | 0.0 | 0.00 | 0.00 | 0.00 | 82 | 1022.3 | |
| 20260902230041 | 72 | 0.0 | 0.0 | 0.00 | 0.00 | 0.00 | 81 | 1022.2 | |
| 20260902225036 | 72 | 0.0 | 0.0 | 0.00 | 0.00 | 0.00 | 92 | 1022.1 | |
| 20260902224036 | 72 | 0.0 | 0.0 | 0.00 | 0.00 | 0.00 | 86 | 1021.9 | |
| 20260902223036 | 72 | 0.0 | 0.0 | 0.00 | 0.00 | 0.00 | 87 | 1022.0 | |
| 20260902222036 | 72 | 0.0 | 0.0 | 0.00 | 0.00 | 0.00 | 92 | 1022.1 | |
| 20260902221036 | 73 | 0.0 | 0.0 | 0.00 | 0.00 | 0.00 | 95 | 1022.1 | |
| 20260902220036 | 73 | 0.0 | 0.0 | 0.00 | 0.00 | 0.00 | 96 | 1022.1 | |
| 20260902215036 | 73 | 0.0 | 0.0 | 0.00 | 0.00 | 0.00 | 95 | 1022.1 | |
| 20260902214041 | 73 | 0.0 | 0.0 | 0.00 | 0.00 | 0.00 | 97 | 1022.0 | |
| 20260902213036 | 74 | 0.0 | 0.0 | 0.00 | 0.00 | 0.00 | 97 | 1021.8 | |
| 20260902212036 | 74 | 0.0 | 0.0 | 0.00 | 0.00 | 0.00 | 95 | 1021.8 | |
| 20260902211036 | 74 | 0.0 | 0.0 | 0.00 | 0.00 | 0.00 | 93 | 1021.8 | |
| 20260902210036 | 75 | 0.0 | 0.0 | 0.00 | 0.00 | 0.00 | 10 | 1021.6 | |
| 20260902205036 | 75 | 0.0 | 0.0 | 0.00 | 0.00 | 0.00 | 91 | 1021.7 | |
| 20260902204036 | 75 | 0.0 | 0.0 | 0.00 | 0.00 | 0.00 | 88 | 1021.6 | |
| 20260902203036 | 76 | 0.0 | 0.0 | 0.00 | 0.00 | 0.00 | 85 | 1021.5 | |
| 20260902202041 | 77 | 0.0 | 0.0 | 0.00 | 0.00 | 0.00 | 85 | 1021.4 | |
| 20260902201041 | 78 | 0.0 | 0.0 | 0.00 | 0.00 | 0.00 | 87 | 1021.4 | |
| 20260902200036 | 77 | 0.0 | 0.0 | 0.00 | 0.00 | 0.00 | 86 | 1021.3 | |
| 20260902195036 | 78 | 0.0 | 0.0 | 0.00 | 0.00 | 0.00 | 82 | 1021.1 | |
| 20260902194036 | 78 | 0.0 | 0.0 | 0.00 | 0.00 | 0.00 | 84 | 1020.9 | |
| 20260902193036 | 78 | 0.0 | 0.0 | 0.00 | 0.00 | 0.00 | 86 | 1020.8 | |
| 20260902192036 | 78 | 0.0 | 0.0 | 0.00 | 0.00 | 0.00 | 86 | 1020.7 | |
| 20260902191036 | 78 | 0.0 | 0.0 | 0.00 | 0.00 | 0.00 | 83 | 1020.5 | |
| 20260902190036 | 78 | 0.0 | 0.0 | 0.00 | 0.00 | 0.00 | 82 | 1020.3 | |
| 20260902185036 | 79 | 0.0 | 0.0 | 0.00 | 0.00 | 0.00 | 80 | 1020.2 |